Location: Observatorio Las Palmas
(29.0667°N, 110.9333°W)
Time: 14:46:53
(UTC-07:00)

Hubble Space Telescope - Visible Passes

Search period start: 28 July 2015 00:00
Search period end: 07 August 2015 00:00
Orbit: 542 x 545 km, 28.5° (Epoch: 27 July)

Date Brightness Start Highest point End Pass type
(mag) Time Alt. Az. Time Alt. Az. Time Alt. Az.
28 Jul 3.0 03:11:18 19° ESE 03:11:18 19° ESE 03:12:31 10° ESE visible
28 Jul 1.5 04:46:46 16° WSW 04:49:30 34° SSW 04:53:17 10° SE visible
29 Jul 3.6 03:03:34 10° ESE 03:03:34 10° ESE 03:03:39 10° ESE visible
29 Jul 1.8 04:39:04 22° WSW 04:40:36 27° SSW 04:44:09 10° SE visible
30 Jul 2.1 04:31:32 22° SSW 04:31:40 22° SSW 04:34:53 10° SSE visible
31 Jul 2.8 04:24:10 14° S 04:24:10 14° S 04:25:26 10° SSE visible
01 Aug 2.8 21:16:29 10° SW 21:17:44 18° SW 21:17:44 18° SW visible
02 Aug 1.9 21:07:28 10° WSW 21:10:01 32° SW 21:10:01 32° SW visible
03 Aug 1.0 20:58:31 10° WSW 21:02:07 53° SSW 21:02:07 53° SSW visible
04 Aug 0.6 20:49:37 10° WSW 20:53:44 66° S 20:54:03 63° SE visible
05 Aug 0.6 20:40:44 10° WSW 20:44:52 74° S 20:45:51 50° ESE visible
06 Aug 0.6 20:31:52 10° W 20:36:01 80° S 20:37:32 38° E visible
